Regional Weather Roundup
Issued by NWS

Home | Current Version | Previous Version | Graphics & Text | Print | Product List | Glossary On
Versions: 1 2 3 4 5 6 7 8 9 10 11 12 13 14 15 16 17 18 19 20 21 22 23 24 25 26 27
000
ASUS45 KCYS 200410
RWRWY

WYOMING REGIONAL WEATHER ROUNDUP
NATIONAL WEATHER SERVICE CHEYENNE WY
900 PM MST FRI JAN 19 2018

NOTE:  "FAIR" INDICATES FEW OR NO CLOUDS BELOW 12,000 FEET
WITH NO SIGNIFICANT WEATHER AND/OR OBSTRUCTIONS TO VISIBILITY.

WYZ001-200500-
YELLOWSTONE NATIONAL PARK

CITY           SKY/WX    TMP DP  RH WIND       PRES   REMARKS
LK YELLOWSTONE   N/A     21  18  88 VRB6      29.80R WCI  13
W YELLOWSTONE  NOT AVBL

$$
WYZ002>013-054>058-071-098>099-200500-
NORTHERN WYOMING

CITY           SKY/WX    TMP DP  RH WIND       PRES   REMARKS
JACKSON        CLOUDY    28  22  78 SW20      29.83R WCI  15
CODY           FLURRIES  30  28  92 N7        29.81R WCI  23
GREYBULL       FAIR      34  31  88 NW8       29.77R WCI  27
WORLAND        LGT SNOW  33  32  96 SE3       29.78R FOG
SHERIDAN       CLOUDY    34  32  92 NW17      29.81R WCI  23
BUFFALO        CLOUDY    33  29  85 N16G24    29.77R WCI  23
GILLETTE       CLOUDY    36  33  89 N6        29.75R WCI  31
HULETT         CLOUDY    34  32  93 SW3       29.76R
NEWCASTLE      MOCLDY    34  30  86 E10       29.75R WCI  26

$$
WYZ014>020-022>026-101>103-200500-
CENTRAL WYOMING

CITY           SKY/WX    TMP DP  RH WIND       PRES   REMARKS
BIG PINEY      CLOUDY    27  18  69 N13       29.84R WCI  16
PINEDALE       FLURRIES  27  21  80 NW18      29.84R WCI  13
DUBOIS         CLOUDY    28  14  54 W15       29.78R WCI  17
LANDER         CLOUDY    38  26  62 CALM      29.73R
RIVERTON       CLOUDY    37  19  48 NW23G30   29.73R WCI  26
CASPER         CLOUDY    38  28  67 NW5       29.72R WCI  34
DOUGLAS        FAIR      35  28  75 CALM      29.72R

$$
WYZ021-027>030-104>119-200500-
SOUTHERN WYOMING

CITY           SKY/WX    TMP DP  RH WIND       PRES   REMARKS
EVANSTON       SNOW      24  24 100 N10       29.87R VSB 1/2 WCI  14
ROCK SPRINGS   CLOUDY    34  28  79 W10       29.80R WCI  26
DIXON            N/A     37  21  53 S6        29.85S WCI  32
RAWLINS        FAIR      38  21  50 SW20      29.77S WCI  28
SARATOGA       FAIR      41  21  45 SW22G28   29.78S
LARAMIE        FAIR      37  19  48 W10       29.77S WCI  30
CHEYENNE       FAIR      42  18  37 CALM      29.76F
TORRINGTON     FAIR      37  29  72 SE8       29.72R WCI  31

$$




USA.gov is the U.S. government's official web portal to all federal, state and local government web resources and services.